3788A6351 Weather Reports


time (UTC)temp
C
wind
direction
speed
KPH
gust
KPH
rain 1hr
cm
rain 24hr
cm
rain mn
cm
humidity
%
barometer
mb
20260906134551 20 132 8.0 12.9 0.00 0.05 0.03 96 1019.4
20260906133053 19 104 6.4 12.9 0.00 0.05 0.03 97 1019.4
20260906131547 19 96 6.4 16.1 0.00 0.05 0.03 97 1019.1
20260906124553 19 103 6.4 14.5 0.00 0.05 0.03 98 1018.6
20260906123051 19 111 6.4 16.1 0.03 0.05 0.03 98 1018.3
20260906121555 18 89 8.0 12.9 0.03 0.05 0.03 98 1018.0
20260906120110 18 107 6.4 11.3 0.03 0.05 0.03 98 1017.9
20260906114601 18 82 4.8 11.3 0.03 0.05 0.03 98 1017.8
20260906113102 18 94 3.2 9.7 0.00 0.03 0.00 98 1017.8
20260906111604 18 92 3.2 6.4 0.00 0.03 0.00 97 1017.9
20260906110052 18 94 1.6 3.2 0.00 0.03 0.00 97 1017.9
20260906104600 17 73 0.0 1.6 0.00 0.03 0.00 97 1018.0
20260906103102 17 0 0.0 1.6 0.00 0.03 0.00 97 1018.0
20260906101600 17 0 0.0 1.6 0.00 0.03 0.00 97 1017.7
20260906100053 17 105 0.0 1.6 0.00 0.03 0.00 97 1017.4
20260906094553 17 0 0.0 0.0 0.00 0.03 0.00 97 1017.4
20260906093057 17 0 0.0 0.0 0.00 0.03 0.00 97 1017.5
20260906091553 17 0 0.0 1.6 0.00 0.03 0.00 97 1017.4
20260906090056 18 0 0.0 1.6 0.00 0.03 0.00 96 1017.3
20260906084553 18 0 0.0 1.6 0.00 0.03 0.00 96 1017.1
20260906083100 18 0 0.0 3.2 0.00 0.03 0.00 96 1016.8
20260906081553 18 80 0.0 3.2 0.00 0.03 0.00 96 1016.8
20260906080059 18 0 0.0 4.8 0.00 0.03 0.00 96 1017.0
20260906074602 19 91 0.0 4.8 0.00 0.03 0.00 96 1016.9
20260906073055 19 79 1.6 8.0 0.00 0.03 0.00 96 1017.1
20260906071559 19 79 0.0 4.8 0.00 0.03 0.00 96 1017.3
20260906070059 20 75 1.6 6.4 0.00 0.03 0.00 96 1017.2
20260906064552 19 68 0.0 4.8 0.00 0.03 0.00 96 1017.4
20260906063057 20 0 0.0 3.2 0.00 0.03 0.00 95 1017.5
20260906061556 20 88 0.0 3.2 0.00 0.03 0.00 95 1017.4
20260906060058 20 0 1.6 6.4 0.00 0.03 0.00 95 1017.5
20260906054552 20 82 1.6 6.4 0.00 0.03 0.00 95 1017.5
20260906053053 21 75 1.6 11.3 0.00 0.03 0.00 95 1017.6
20260906051557 21 66 3.2 11.3 0.00 0.03 0.00 95 1017.4
20260906050059 21 75 3.2 8.0 0.00 0.03 0.00 96 1017.3
20260906044553 21 62 1.6 8.0 0.00 0.03 0.03 96 1017.4
20260906043046 21 48 3.2 4.8 0.00 0.03 0.03 96 1017.1
20260906041602 21 51 1.6 6.4 0.00 0.03 0.03 96 1017.2
20260906040054 21 55 0.0 3.2 0.00 0.03 0.03 95 1017.1
20260906034551 21 0 0.0 1.6 0.00 0.03 0.03 95 1017.0
20260906033048 21 340 0.0 1.6 0.00 0.03 0.03 96 1017.1
20260906031556 21 0 0.0 3.2 0.00 0.03 0.03 95 1017.0
20260906030053 21 0 0.0 1.6 0.00 0.03 0.03 95 1017.1
20260906024601 21 0 0.0 1.6 0.00 0.03 0.03 95 1017.1
20260906023050 22 0 0.0 3.2 0.00 0.03 0.03 95 1016.8
20260906021559 21 0 0.0 1.6 0.00 0.03 0.03 95 1016.6
20260906020055 22 0 0.0 1.6 0.00 0.03 0.03 94 1016.6
20260906014608 22 0 0.0 1.6 0.00 0.03 0.03 94 1016.4
20260906013051 22 334 0.0 1.6 0.00 0.03 0.03 94 1016.2
20260906011551 22 0 0.0 0.0 0.00 0.03 0.03 93 1016.1
20260906010116 22 0 0.0 1.6 0.00 0.03 0.03 93 1016.0
20260906004600 22 77 1.6 3.2 0.00 0.03 0.03 92 1015.8
20260906003110 23 0 0.0 1.6 0.00 0.03 0.03 91 1015.9
20260906001549 23 77 0.0 4.8 0.00 0.03 0.03 90 1015.7
20260906000053 23 78 1.6 4.8 0.00 0.03 0.03 89 1015.7
20260905234603 24 0 0.0 3.2 0.00 0.03 0.03 89 1015.6
20260905233048 24 75 1.6 6.4 0.00 0.03 0.03 87 1015.5
20260905231559 25 78 1.6 4.8 0.00 0.03 0.03 86 1015.5
20260905230056 25 64 4.8 11.3 0.00 0.03 0.03 86 1015.2
20260905224549 25 114 4.8 12.9 0.00 0.03 0.03 86 1015.2
20260905223057 25 89 6.4 11.3 0.00 0.03 0.03 85 1015.1
20260905221550 25 65 6.4 11.3 0.00 0.03 0.03 86 1015.1
20260905220100 25 84 6.4 12.9 0.00 0.03 0.03 86 1015.0
20260905214552 25 79 8.0 16.1 0.00 0.03 0.03 85 1015.0
20260905213050 25 91 8.0 12.9 0.00 0.03 0.03 86 1015.1
20260905211547 25 117 4.8 9.7 0.00 0.03 0.03 87 1015.1
20260905210055 25 93 8.0 17.7 0.00 0.03 0.03 86 1015.3
20260905204559 25 101 6.4 14.5 0.00 0.03 0.03 88 1015.1
20260905203056 25 82 6.4 14.5 0.00 0.03 0.03 87 1015.3
20260905201546 25 104 6.4 12.9 0.00 0.03 0.03 87 1015.4
20260905200053 25 98 6.4 14.5 0.00 0.03 0.03 87 1015.1
20260905194554 25 101 9.7 17.7 0.00 0.03 0.03 86 1015.5
20260905193106 26 77 8.0 22.5 0.00 0.03 0.03 88 1015.0
20260905191553 25 70 12.9 24.1 0.00 0.03 0.03 89 1014.7
20260905184558 25 84 11.3 20.9 0.00 0.03 0.03 91 1015.5
20260905183056 25 42 9.7 14.5 0.00 0.03 0.03 91 1016.6
20260905181601 24 36 6.4 11.3 0.00 0.03 0.03 93 1017.1
20260905180100 24 53 3.2 9.7 0.03 0.03 0.03 94 1017.1
20260905174552 23 38 3.2 8.0 0.03 0.03 0.03 95 1017.2
20260905173056 23 306 1.6 9.7 0.03 0.03 0.03 97 1017.3
20260905171552 23 351 1.6 8.0 0.03 0.03 0.03 97 1017.7
20260905170105 23 349 3.2 8.0 0.00 0.00 0.00 97 1017.6
20260905164600 23 12 3.2 9.7 0.00 0.00 0.00 97 1017.6
20260905163055 23 27 0.0 4.8 0.00 0.00 0.00 98 1017.7
20260905161551 23 356 1.6 4.8 0.00 0.00 0.00 98 1017.6
20260905160053 22 342 1.6 6.4 0.00 0.00 0.00 98 1017.3
20260905154556 22 56 1.6 8.0 0.00 0.00 0.00 98 1017.1
20260905153051 22 347 0.0 6.4 0.00 0.00 0.00 98 1017.1
20260905151558 22 34 1.6 6.4 0.00 0.00 0.00 98 1016.8
20260905150100 22 327 0.0 4.8 0.00 0.00 0.00 98 1016.7
20260905144554 22 349 1.6 4.8 0.00 0.00 0.00 98 1016.7
20260905143100 21 3 1.6 8.0 0.00 0.00 0.00 98 1016.5
20260905141553 21 4 1.6 4.8 0.00 0.00 0.00 98 1016.4
20260905140052 21 0 0.0 4.8 0.00 0.00 0.00 98 1016.2